This is the latest recevied weather packets stored in our database for station/object EA7OC-10. If no packets are shown the sender has not sent any weather packets the latest 10 day(s).
| Time | Temp. | Humidity | Pressure | Rain* | Wind** | Luminosity | Snow |
|---|---|---|---|---|---|---|---|
| 1787481448 | 34.44° C | 31% | 1016.9 hPa | - | - | - | - |
| 1787480548 | 35.56° C | 31% | 1017 hPa | - | - | - | - |
| 1787479647 | 36.11° C | 31% | 1017.2 hPa | - | - | - | - |
| 1787478747 | 36.11° C | 31% | 1017.1 hPa | - | - | - | - |
| 1787477847 | 36.11° C | 31% | 1017.2 hPa | - | - | - | - |
| 1787476947 | 35.56° C | 31% | 1017.1 hPa | - | - | - | - |
| 1787475163 | 35.56° C | 31% | 1017.2 hPa | - | - | - | - |
| 1787474263 | 35° C | 32% | 1017.2 hPa | - | - | - | - |
| 1787473363 | 34.44° C | 32% | 1017.2 hPa | - | - | - | - |
| 1787472463 | 33.89° C | 32% | 1017.2 hPa | - | - | - | - |
| 1787471560 | 33.89° C | 33% | 1017.3 hPa | - | - | - | - |
| 1787470660 | 32.22° C | 33% | 1017.1 hPa | - | - | - | - |
| 1787469759 | 31.11° C | 34% | 1017.2 hPa | - | - | - | - |
| 1787468859 | 30° C | 34% | 1017.2 hPa | - | - | - | - |
| 1787467959 | 27.78° C | 34% | 1017.2 hPa | - | - | - | - |
| 1787467059 | 25.56° C | 36% | 1017.2 hPa | - | - | - | - |
| 1787466159 | 22.78° C | 34% | 1016.9 hPa | - | - | - | - |
| 1787465259 | 21.11° C | 34% | 1016.8 hPa | - | - | - | - |
| 1787464359 | 20.56° C | 33% | 1016.6 hPa | - | - | - | - |
| 1787463459 | 20.56° C | 33% | 1016.5 hPa | - | - | - | - |
| 1787462559 | 20.56° C | 33% | 1016.3 hPa | - | - | - | - |
| 1787461659 | 20.56° C | 33% | 1016.3 hPa | - | - | - | - |
| 1787460758 | 20.56° C | 33% | 1016.1 hPa | - | - | - | - |
| 1787459858 | 21.11° C | 33% | 1016 hPa | - | - | - | - |
| 1787458958 | 21.11° C | 32% | 1016 hPa | - | - | - | - |
* Rain since midnight (hover to see other rain measurements)
** Current wind speed in m/s (hover to see current wind gust speed)